<?xml version="1.0" encoding="UTF-8" standalone="no" ?>
<gpx xmlns="http://www.topografix.com/GPX/1/1" xmlns:xsi="http://www.w3.org/2001/XMLSchema-instance" xsi:schemaLocation="http://www.topografix.com/GPX/1/1 http://www.topografix.com/GPX/1/1/gpx.xsd" version="1.1" creator="VisuGPX - https://www.visugpx.com">
  <metadata>
    <name>Parcours VTT Aglo 2021</name>
  </metadata>
  <trk>
    <name><![CDATA[Bleu Cornillon St Gely]]></name>
    <extensions>
      <line xmlns="http://www.topografix.com/GPX/gpx_style/0/2">
        <color>0000fa</color>
        <width>4</width>
      </line>
    </extensions>
    <trkseg>
      <trkpt lat="44.2182" lon="4.4858">
        <ele>89</ele>
        <time>2021-07-04T13:00:13Z</time>
      </trkpt>
      <trkpt lat="44.2182" lon="4.4858">
        <ele>89</ele>
        <time>2021-07-04T13:00:13Z</time>
      </trkpt>
      <trkpt lat="44.21856" lon="4.48553">
        <ele>86</ele>
        <time>2021-07-04T13:00:23Z</time>
      </trkpt>
      <trkpt lat="44.21841" lon="4.48534">
        <ele>85</ele>
        <time>2021-07-04T13:00:27Z</time>
      </trkpt>
      <trkpt lat="44.21808" lon="4.48553">
        <ele>87</ele>
        <time>2021-07-04T13:00:36Z</time>
      </trkpt>
      <trkpt lat="44.21804" lon="4.48543">
        <ele>87</ele>
        <time>2021-07-04T13:00:38Z</time>
      </trkpt>
      <trkpt lat="44.21801" lon="4.48546">
        <ele>87</ele>
        <time>2021-07-04T13:00:38Z</time>
      </trkpt>
      <trkpt lat="44.21787" lon="4.48533">
        <ele>87</ele>
        <time>2021-07-04T13:00:42Z</time>
      </trkpt>
      <trkpt lat="44.21716" lon="4.48461">
        <ele>85</ele>
        <time>2021-07-04T13:01:03Z</time>
      </trkpt>
      <trkpt lat="44.21697" lon="4.4844">
        <ele>84</ele>
        <time>2021-07-04T13:01:08Z</time>
      </trkpt>
      <trkpt lat="44.21586" lon="4.48329">
        <ele>76</ele>
        <time>2021-07-04T13:01:40Z</time>
      </trkpt>
      <trkpt lat="44.21549" lon="4.48296">
        <ele>76</ele>
        <time>2021-07-04T13:01:51Z</time>
      </trkpt>
      <trkpt lat="44.2154" lon="4.48291">
        <ele>76</ele>
        <time>2021-07-04T13:01:53Z</time>
      </trkpt>
      <trkpt lat="44.21479" lon="4.4825">
        <ele>77</ele>
        <time>2021-07-04T13:02:09Z</time>
      </trkpt>
      <trkpt lat="44.21443" lon="4.48231">
        <ele>76</ele>
        <time>2021-07-04T13:02:18Z</time>
      </trkpt>
      <trkpt lat="44.21287" lon="4.48173">
        <ele>78</ele>
        <time>2021-07-04T13:02:55Z</time>
      </trkpt>
      <trkpt lat="44.2126" lon="4.48162">
        <ele>79</ele>
        <time>2021-07-04T13:03:02Z</time>
      </trkpt>
      <trkpt lat="44.2126" lon="4.48162">
        <ele>79</ele>
        <time>2021-07-04T13:03:02Z</time>
      </trkpt>
      <trkpt lat="44.21254" lon="4.48161">
        <ele>79</ele>
        <time>2021-07-04T13:03:03Z</time>
      </trkpt>
      <trkpt lat="44.21246" lon="4.48198">
        <ele>78</ele>
        <time>2021-07-04T13:03:10Z</time>
      </trkpt>
      <trkpt lat="44.21238" lon="4.48237">
        <ele>77</ele>
        <time>2021-07-04T13:03:17Z</time>
      </trkpt>
      <trkpt lat="44.21227" lon="4.48276">
        <ele>77</ele>
        <time>2021-07-04T13:03:24Z</time>
      </trkpt>
      <trkpt lat="44.21214" lon="4.48307">
        <ele>78</ele>
        <time>2021-07-04T13:03:30Z</time>
      </trkpt>
      <trkpt lat="44.21198" lon="4.48323">
        <ele>78</ele>
        <time>2021-07-04T13:03:34Z</time>
      </trkpt>
      <trkpt lat="44.21191" lon="4.48328">
        <ele>79</ele>
        <time>2021-07-04T13:03:36Z</time>
      </trkpt>
      <trkpt lat="44.21184" lon="4.48338">
        <ele>79</ele>
        <time>2021-07-04T13:03:38Z</time>
      </trkpt>
      <trkpt lat="44.21175" lon="4.4836">
        <ele>79</ele>
        <time>2021-07-04T13:03:43Z</time>
      </trkpt>
      <trkpt lat="44.2117" lon="4.48367">
        <ele>80</ele>
        <time>2021-07-04T13:03:44Z</time>
      </trkpt>
      <trkpt lat="44.21163" lon="4.4837">
        <ele>80</ele>
        <time>2021-07-04T13:03:46Z</time>
      </trkpt>
      <trkpt lat="44.21151" lon="4.48366">
        <ele>80</ele>
        <time>2021-07-04T13:03:49Z</time>
      </trkpt>
      <trkpt lat="44.21124" lon="4.48352">
        <ele>80</ele>
        <time>2021-07-04T13:03:56Z</time>
      </trkpt>
      <trkpt lat="44.21097" lon="4.48338">
        <ele>80</ele>
        <time>2021-07-04T13:04:02Z</time>
      </trkpt>
      <trkpt lat="44.21094" lon="4.48338">
        <ele>80</ele>
        <time>2021-07-04T13:04:03Z</time>
      </trkpt>
      <trkpt lat="44.21091" lon="4.48339">
        <ele>80</ele>
        <time>2021-07-04T13:04:04Z</time>
      </trkpt>
      <trkpt lat="44.21078" lon="4.48368">
        <ele>80</ele>
        <time>2021-07-04T13:04:10Z</time>
      </trkpt>
      <trkpt lat="44.21063" lon="4.48419">
        <ele>79</ele>
        <time>2021-07-04T13:04:19Z</time>
      </trkpt>
      <trkpt lat="44.21048" lon="4.48468">
        <ele>79</ele>
        <time>2021-07-04T13:04:28Z</time>
      </trkpt>
      <trkpt lat="44.21017" lon="4.48542">
        <ele>79</ele>
        <time>2021-07-04T13:04:42Z</time>
      </trkpt>
      <trkpt lat="44.21002" lon="4.48576">
        <ele>79</ele>
        <time>2021-07-04T13:04:49Z</time>
      </trkpt>
      <trkpt lat="44.20988" lon="4.48612">
        <ele>80</ele>
        <time>2021-07-04T13:04:56Z</time>
      </trkpt>
      <trkpt lat="44.20974" lon="4.48648">
        <ele>81</ele>
        <time>2021-07-04T13:05:02Z</time>
      </trkpt>
      <trkpt lat="44.20973" lon="4.48654">
        <ele>81</ele>
        <time>2021-07-04T13:05:03Z</time>
      </trkpt>
      <trkpt lat="44.20946" lon="4.48745">
        <ele>80</ele>
        <time>2021-07-04T13:05:20Z</time>
      </trkpt>
      <trkpt lat="44.20933" lon="4.48789">
        <ele>80</ele>
        <time>2021-07-04T13:05:28Z</time>
      </trkpt>
      <trkpt lat="44.20922" lon="4.4884">
        <ele>80</ele>
        <time>2021-07-04T13:05:37Z</time>
      </trkpt>
      <trkpt lat="44.20911" lon="4.48891">
        <ele>82</ele>
        <time>2021-07-04T13:05:46Z</time>
      </trkpt>
      <trkpt lat="44.20899" lon="4.48978">
        <ele>82</ele>
        <time>2021-07-04T13:06:01Z</time>
      </trkpt>
      <trkpt lat="44.20888" lon="4.49039">
        <ele>83</ele>
        <time>2021-07-04T13:06:11Z</time>
      </trkpt>
      <trkpt lat="44.2085" lon="4.49027">
        <ele>83</ele>
        <time>2021-07-04T13:06:20Z</time>
      </trkpt>
      <trkpt lat="44.20836" lon="4.49023">
        <ele>83</ele>
        <time>2021-07-04T13:06:24Z</time>
      </trkpt>
      <trkpt lat="44.20819" lon="4.49015">
        <ele>84</ele>
        <time>2021-07-04T13:06:28Z</time>
      </trkpt>
      <trkpt lat="44.20788" lon="4.49002">
        <ele>86</ele>
        <time>2021-07-04T13:06:35Z</time>
      </trkpt>
      <trkpt lat="44.20762" lon="4.48993">
        <ele>88</ele>
        <time>2021-07-04T13:06:42Z</time>
      </trkpt>
      <trkpt lat="44.20736" lon="4.48982">
        <ele>91</ele>
        <time>2021-07-04T13:06:48Z</time>
      </trkpt>
      <trkpt lat="44.20702" lon="4.48981">
        <ele>97</ele>
        <time>2021-07-04T13:06:56Z</time>
      </trkpt>
      <trkpt lat="44.20691" lon="4.48976">
        <ele>99</ele>
        <time>2021-07-04T13:06:59Z</time>
      </trkpt>
      <trkpt lat="44.20692" lon="4.49011">
        <ele>98</ele>
        <time>2021-07-04T13:07:04Z</time>
      </trkpt>
      <trkpt lat="44.20693" lon="4.49046">
        <ele>98</ele>
        <time>2021-07-04T13:07:10Z</time>
      </trkpt>
      <trkpt lat="44.20701" lon="4.49142">
        <ele>96</ele>
        <time>2021-07-04T13:07:26Z</time>
      </trkpt>
      <trkpt lat="44.20704" lon="4.49176">
        <ele>95</ele>
        <time>2021-07-04T13:07:32Z</time>
      </trkpt>
      <trkpt lat="44.20719" lon="4.49223">
        <ele>94</ele>
        <time>2021-07-04T13:07:41Z</time>
      </trkpt>
      <trkpt lat="44.20733" lon="4.49268">
        <ele>93</ele>
        <time>2021-07-04T13:07:49Z</time>
      </trkpt>
      <trkpt lat="44.20759" lon="4.49324">
        <ele>91</ele>
        <time>2021-07-04T13:08:00Z</time>
      </trkpt>
      <trkpt lat="44.20767" lon="4.49342">
        <ele>90</ele>
        <time>2021-07-04T13:08:04Z</time>
      </trkpt>
      <trkpt lat="44.20773" lon="4.4936">
        <ele>90</ele>
        <time>2021-07-04T13:08:07Z</time>
      </trkpt>
      <trkpt lat="44.20782" lon="4.49395">
        <ele>89</ele>
        <time>2021-07-04T13:08:13Z</time>
      </trkpt>
      <trkpt lat="44.20787" lon="4.49408">
        <ele>89</ele>
        <time>2021-07-04T13:08:16Z</time>
      </trkpt>
      <trkpt lat="44.20793" lon="4.49451">
        <ele>87</ele>
        <time>2021-07-04T13:08:23Z</time>
      </trkpt>
      <trkpt lat="44.20794" lon="4.49453">
        <ele>87</ele>
        <time>2021-07-04T13:08:23Z</time>
      </trkpt>
      <trkpt lat="44.20803" lon="4.49509">
        <ele>85</ele>
        <time>2021-07-04T13:08:33Z</time>
      </trkpt>
      <trkpt lat="44.20811" lon="4.49541">
        <ele>84</ele>
        <time>2021-07-04T13:08:39Z</time>
      </trkpt>
      <trkpt lat="44.20824" lon="4.49582">
        <ele>83</ele>
        <time>2021-07-04T13:08:46Z</time>
      </trkpt>
      <trkpt lat="44.20838" lon="4.49637">
        <ele>82</ele>
        <time>2021-07-04T13:08:56Z</time>
      </trkpt>
      <trkpt lat="44.2084" lon="4.49647">
        <ele>82</ele>
        <time>2021-07-04T13:08:58Z</time>
      </trkpt>
      <trkpt lat="44.20842" lon="4.49687">
        <ele>81</ele>
        <time>2021-07-04T13:09:04Z</time>
      </trkpt>
      <trkpt lat="44.20842" lon="4.49689">
        <ele>81</ele>
        <time>2021-07-04T13:09:05Z</time>
      </trkpt>
      <trkpt lat="44.20846" lon="4.49731">
        <ele>79</ele>
        <time>2021-07-04T13:09:12Z</time>
      </trkpt>
      <trkpt lat="44.20852" lon="4.49779">
        <ele>77</ele>
        <time>2021-07-04T13:09:20Z</time>
      </trkpt>
      <trkpt lat="44.20855" lon="4.49795">
        <ele>77</ele>
        <time>2021-07-04T13:09:23Z</time>
      </trkpt>
      <trkpt lat="44.20861" lon="4.49806">
        <ele>77</ele>
        <time>2021-07-04T13:09:25Z</time>
      </trkpt>
      <trkpt lat="44.2088" lon="4.49858">
        <ele>76</ele>
        <time>2021-07-04T13:09:35Z</time>
      </trkpt>
      <trkpt lat="44.20895" lon="4.49896">
        <ele>76</ele>
        <time>2021-07-04T13:09:42Z</time>
      </trkpt>
      <trkpt lat="44.20911" lon="4.49934">
        <ele>75</ele>
        <time>2021-07-04T13:09:50Z</time>
      </trkpt>
      <trkpt lat="44.20906" lon="4.49938">
        <ele>75</ele>
        <time>2021-07-04T13:09:51Z</time>
      </trkpt>
      <trkpt lat="44.20901" lon="4.49937">
        <ele>75</ele>
        <time>2021-07-04T13:09:52Z</time>
      </trkpt>
      <trkpt lat="44.20896" lon="4.49937">
        <ele>75</ele>
        <time>2021-07-04T13:09:53Z</time>
      </trkpt>
      <trkpt lat="44.208" lon="4.49923">
        <ele>76</ele>
        <time>2021-07-04T13:10:16Z</time>
      </trkpt>
      <trkpt lat="44.20771" lon="4.49919">
        <ele>77</ele>
        <time>2021-07-04T13:10:23Z</time>
      </trkpt>
      <trkpt lat="44.20764" lon="4.49919">
        <ele>77</ele>
        <time>2021-07-04T13:10:24Z</time>
      </trkpt>
      <trkpt lat="44.20741" lon="4.49916">
        <ele>79</ele>
        <time>2021-07-04T13:10:30Z</time>
      </trkpt>
      <trkpt lat="44.20703" lon="4.49912">
        <ele>83</ele>
        <time>2021-07-04T13:10:38Z</time>
      </trkpt>
      <trkpt lat="44.20683" lon="4.49908">
        <ele>85</ele>
        <time>2021-07-04T13:10:43Z</time>
      </trkpt>
      <trkpt lat="44.20661" lon="4.499">
        <ele>88</ele>
        <time>2021-07-04T13:10:49Z</time>
      </trkpt>
      <trkpt lat="44.20642" lon="4.49894">
        <ele>89</ele>
        <time>2021-07-04T13:10:53Z</time>
      </trkpt>
      <trkpt lat="44.20624" lon="4.49891">
        <ele>91</ele>
        <time>2021-07-04T13:10:57Z</time>
      </trkpt>
      <trkpt lat="44.20615" lon="4.49889">
        <ele>92</ele>
        <time>2021-07-04T13:10:59Z</time>
      </trkpt>
      <trkpt lat="44.20601" lon="4.49889">
        <ele>93</ele>
        <time>2021-07-04T13:11:03Z</time>
      </trkpt>
      <trkpt lat="44.20593" lon="4.49889">
        <ele>93</ele>
        <time>2021-07-04T13:11:05Z</time>
      </trkpt>
      <trkpt lat="44.20592" lon="4.49918">
        <ele>94</ele>
        <time>2021-07-04T13:11:09Z</time>
      </trkpt>
      <trkpt lat="44.20588" lon="4.49938">
        <ele>94</ele>
        <time>2021-07-04T13:11:13Z</time>
      </trkpt>
      <trkpt lat="44.20586" lon="4.49963">
        <ele>93</ele>
        <time>2021-07-04T13:11:17Z</time>
      </trkpt>
      <trkpt lat="44.20585" lon="4.49977">
        <ele>93</ele>
        <time>2021-07-04T13:11:19Z</time>
      </trkpt>
      <trkpt lat="44.20579" lon="4.49994">
        <ele>93</ele>
        <time>2021-07-04T13:11:23Z</time>
      </trkpt>
      <trkpt lat="44.20571" lon="4.50019">
        <ele>92</ele>
        <time>2021-07-04T13:11:27Z</time>
      </trkpt>
      <trkpt lat="44.20552" lon="4.50094">
        <ele>92</ele>
        <time>2021-07-04T13:11:41Z</time>
      </trkpt>
      <trkpt lat="44.20535" lon="4.50167">
        <ele>90</ele>
        <time>2021-07-04T13:11:53Z</time>
      </trkpt>
      <trkpt lat="44.20532" lon="4.50178">
        <ele>90</ele>
        <time>2021-07-04T13:11:55Z</time>
      </trkpt>
      <trkpt lat="44.20531" lon="4.50197">
        <ele>90</ele>
        <time>2021-07-04T13:11:59Z</time>
      </trkpt>
      <trkpt lat="44.20531" lon="4.50226">
        <ele>89</ele>
        <time>2021-07-04T13:12:03Z</time>
      </trkpt>
      <trkpt lat="44.20532" lon="4.50237">
        <ele>89</ele>
        <time>2021-07-04T13:12:05Z</time>
      </trkpt>
      <trkpt lat="44.20529" lon="4.50284">
        <ele>88</ele>
        <time>2021-07-04T13:12:13Z</time>
      </trkpt>
      <trkpt lat="44.20531" lon="4.50309">
        <ele>88</ele>
        <time>2021-07-04T13:12:17Z</time>
      </trkpt>
      <trkpt lat="44.20529" lon="4.50327">
        <ele>88</ele>
        <time>2021-07-04T13:12:20Z</time>
      </trkpt>
      <trkpt lat="44.20522" lon="4.50358">
        <ele>88</ele>
        <time>2021-07-04T13:12:26Z</time>
      </trkpt>
      <trkpt lat="44.20518" lon="4.50403">
        <ele>87</ele>
        <time>2021-07-04T13:12:33Z</time>
      </trkpt>
      <trkpt lat="44.20514" lon="4.50437">
        <ele>86</ele>
        <time>2021-07-04T13:12:39Z</time>
      </trkpt>
      <trkpt lat="44.20505" lon="4.50473">
        <ele>85</ele>
        <time>2021-07-04T13:12:46Z</time>
      </trkpt>
      <trkpt lat="44.20494" lon="4.50531">
        <ele>83</ele>
        <time>2021-07-04T13:12:56Z</time>
      </trkpt>
      <trkpt lat="44.2049" lon="4.50554">
        <ele>82</ele>
        <time>2021-07-04T13:13:00Z</time>
      </trkpt>
      <trkpt lat="44.20487" lon="4.50579">
        <ele>81</ele>
        <time>2021-07-04T13:13:04Z</time>
      </trkpt>
      <trkpt lat="44.20486" lon="4.50616">
        <ele>79</ele>
        <time>2021-07-04T13:13:10Z</time>
      </trkpt>
      <trkpt lat="44.20483" lon="4.50644">
        <ele>77</ele>
        <time>2021-07-04T13:13:15Z</time>
      </trkpt>
      <trkpt lat="44.20481" lon="4.50657">
        <ele>77</ele>
        <time>2021-07-04T13:13:17Z</time>
      </trkpt>
      <trkpt lat="44.20475" lon="4.50671">
        <ele>77</ele>
        <time>2021-07-04T13:13:20Z</time>
      </trkpt>
      <trkpt lat="44.20471" lon="4.50672">
        <ele>78</ele>
        <time>2021-07-04T13:13:21Z</time>
      </trkpt>
      <trkpt lat="44.20466" lon="4.50674">
        <ele>79</ele>
        <time>2021-07-04T13:13:22Z</time>
      </trkpt>
      <trkpt lat="44.20465" lon="4.50676">
        <ele>79</ele>
        <time>2021-07-04T13:13:22Z</time>
      </trkpt>
      <trkpt lat="44.20454" lon="4.50693">
        <ele>80</ele>
        <time>2021-07-04T13:13:26Z</time>
      </trkpt>
      <trkpt lat="44.20439" lon="4.5071">
        <ele>81</ele>
        <time>2021-07-04T13:13:31Z</time>
      </trkpt>
      <trkpt lat="44.20427" lon="4.50723">
        <ele>82</ele>
        <time>2021-07-04T13:13:34Z</time>
      </trkpt>
      <trkpt lat="44.20412" lon="4.50743">
        <ele>82</ele>
        <time>2021-07-04T13:13:39Z</time>
      </trkpt>
      <trkpt lat="44.20396" lon="4.50765">
        <ele>81</ele>
        <time>2021-07-04T13:13:44Z</time>
      </trkpt>
      <trkpt lat="44.20376" lon="4.50781">
        <ele>81</ele>
        <time>2021-07-04T13:13:50Z</time>
      </trkpt>
      <trkpt lat="44.20356" lon="4.50797">
        <ele>81</ele>
        <time>2021-07-04T13:13:55Z</time>
      </trkpt>
      <trkpt lat="44.20341" lon="4.508">
        <ele>82</ele>
        <time>2021-07-04T13:13:59Z</time>
      </trkpt>
      <trkpt lat="44.20309" lon="4.50818">
        <ele>79</ele>
        <time>2021-07-04T13:14:07Z</time>
      </trkpt>
      <trkpt lat="44.20269" lon="4.50844">
        <ele>76</ele>
        <time>2021-07-04T13:14:17Z</time>
      </trkpt>
      <trkpt lat="44.20253" lon="4.50853">
        <ele>76</ele>
        <time>2021-07-04T13:14:21Z</time>
      </trkpt>
      <trkpt lat="44.20244" lon="4.50855">
        <ele>76</ele>
        <time>2021-07-04T13:14:23Z</time>
      </trkpt>
      <trkpt lat="44.20226" lon="4.50866">
        <ele>76</ele>
        <time>2021-07-04T13:14:28Z</time>
      </trkpt>
      <trkpt lat="44.20221" lon="4.50868">
        <ele>76</ele>
        <time>2021-07-04T13:14:29Z</time>
      </trkpt>
      <trkpt lat="44.20207" lon="4.50879">
        <ele>76</ele>
        <time>2021-07-04T13:14:33Z</time>
      </trkpt>
      <trkpt lat="44.20199" lon="4.5089">
        <ele>75</ele>
        <time>2021-07-04T13:14:35Z</time>
      </trkpt>
      <trkpt lat="44.20192" lon="4.5089">
        <ele>76</ele>
        <time>2021-07-04T13:14:37Z</time>
      </trkpt>
      <trkpt lat="44.20161" lon="4.50893">
        <ele>77</ele>
        <time>2021-07-04T13:14:44Z</time>
      </trkpt>
      <trkpt lat="44.20124" lon="4.50888">
        <ele>76</ele>
        <time>2021-07-04T13:14:53Z</time>
      </trkpt>
      <trkpt lat="44.20094" lon="4.50882">
        <ele>76</ele>
        <time>2021-07-04T13:15:00Z</time>
      </trkpt>
      <trkpt lat="44.20065" lon="4.50875">
        <ele>76</ele>
        <time>2021-07-04T13:15:07Z</time>
      </trkpt>
      <trkpt lat="44.20038" lon="4.50866">
        <ele>77</ele>
        <time>2021-07-04T13:15:13Z</time>
      </trkpt>
      <trkpt lat="44.20018" lon="4.50856">
        <ele>78</ele>
        <time>2021-07-04T13:15:18Z</time>
      </trkpt>
      <trkpt lat="44.20014" lon="4.50855">
        <ele>78</ele>
        <time>2021-07-04T13:15:19Z</time>
      </trkpt>
      <trkpt lat="44.19968" lon="4.50824">
        <ele>81</ele>
        <time>2021-07-04T13:15:31Z</time>
      </trkpt>
      <trkpt lat="44.19944" lon="4.50808">
        <ele>83</ele>
        <time>2021-07-04T13:15:37Z</time>
      </trkpt>
      <trkpt lat="44.19913" lon="4.50782">
        <ele>85</ele>
        <time>2021-07-04T13:15:46Z</time>
      </trkpt>
      <trkpt lat="44.19853" lon="4.50728">
        <ele>86</ele>
        <time>2021-07-04T13:16:02Z</time>
      </trkpt>
      <trkpt lat="44.1982" lon="4.50701">
        <ele>85</ele>
        <time>2021-07-04T13:16:11Z</time>
      </trkpt>
      <trkpt lat="44.19768" lon="4.5067">
        <ele>81</ele>
        <time>2021-07-04T13:16:25Z</time>
      </trkpt>
      <trkpt lat="44.19744" lon="4.5066">
        <ele>78</ele>
        <time>2021-07-04T13:16:30Z</time>
      </trkpt>
      <trkpt lat="44.19732" lon="4.5064">
        <ele>80</ele>
        <time>2021-07-04T13:16:35Z</time>
      </trkpt>
      <trkpt lat="44.19723" lon="4.5062">
        <ele>81</ele>
        <time>2021-07-04T13:16:39Z</time>
      </trkpt>
      <trkpt lat="44.19709" lon="4.50604">
        <ele>82</ele>
        <time>2021-07-04T13:16:43Z</time>
      </trkpt>
      <trkpt lat="44.19681" lon="4.50581">
        <ele>80</ele>
        <time>2021-07-04T13:16:51Z</time>
      </trkpt>
      <trkpt lat="44.19665" lon="4.50564">
        <ele>79</ele>
        <time>2021-07-04T13:16:55Z</time>
      </trkpt>
      <trkpt lat="44.19649" lon="4.50554">
        <ele>79</ele>
        <time>2021-07-04T13:16:59Z</time>
      </trkpt>
      <trkpt lat="44.19641" lon="4.50552">
        <ele>79</ele>
        <time>2021-07-04T13:17:01Z</time>
      </trkpt>
      <trkpt lat="44.19629" lon="4.50552">
        <ele>78</ele>
        <time>2021-07-04T13:17:04Z</time>
      </trkpt>
      <trkpt lat="44.19618" lon="4.50551">
        <ele>78</ele>
        <time>2021-07-04T13:17:07Z</time>
      </trkpt>
      <trkpt lat="44.19606" lon="4.50548">
        <ele>77</ele>
        <time>2021-07-04T13:17:10Z</time>
      </trkpt>
      <trkpt lat="44.19594" lon="4.5054">
        <ele>77</ele>
        <time>2021-07-04T13:17:13Z</time>
      </trkpt>
      <trkpt lat="44.19583" lon="4.50528">
        <ele>77</ele>
        <time>2021-07-04T13:17:16Z</time>
      </trkpt>
      <trkpt lat="44.19569" lon="4.50516">
        <ele>77</ele>
        <time>2021-07-04T13:17:20Z</time>
      </trkpt>
      <trkpt lat="44.19531" lon="4.50489">
        <ele>76</ele>
        <time>2021-07-04T13:17:30Z</time>
      </trkpt>
      <trkpt lat="44.19524" lon="4.50481">
        <ele>76</ele>
        <time>2021-07-04T13:17:32Z</time>
      </trkpt>
      <trkpt lat="44.19516" lon="4.50462">
        <ele>76</ele>
        <time>2021-07-04T13:17:36Z</time>
      </trkpt>
      <trkpt lat="44.19514" lon="4.50445">
        <ele>76</ele>
        <time>2021-07-04T13:17:38Z</time>
      </trkpt>
      <trkpt lat="44.19501" lon="4.50447">
        <ele>76</ele>
        <time>2021-07-04T13:17:41Z</time>
      </trkpt>
      <trkpt lat="44.19514" lon="4.50445">
        <ele>76</ele>
        <time>2021-07-04T13:17:44Z</time>
      </trkpt>
      <trkpt lat="44.19511" lon="4.50401">
        <ele>77</ele>
        <time>2021-07-04T13:17:52Z</time>
      </trkpt>
      <trkpt lat="44.19503" lon="4.50364">
        <ele>77</ele>
        <time>2021-07-04T13:17:58Z</time>
      </trkpt>
      <trkpt lat="44.19495" lon="4.50352">
        <ele>77</ele>
        <time>2021-07-04T13:18:01Z</time>
      </trkpt>
      <trkpt lat="44.19487" lon="4.50347">
        <ele>77</ele>
        <time>2021-07-04T13:18:03Z</time>
      </trkpt>
      <trkpt lat="44.19456" lon="4.5033">
        <ele>77</ele>
        <time>2021-07-04T13:18:11Z</time>
      </trkpt>
      <trkpt lat="44.19432" lon="4.5032">
        <ele>77</ele>
        <time>2021-07-04T13:18:17Z</time>
      </trkpt>
      <trkpt lat="44.19423" lon="4.50318">
        <ele>76</ele>
        <time>2021-07-04T13:18:19Z</time>
      </trkpt>
      <trkpt lat="44.19402" lon="4.50308">
        <ele>77</ele>
        <time>2021-07-04T13:18:24Z</time>
      </trkpt>
      <trkpt lat="44.19368" lon="4.50295">
        <ele>77</ele>
        <time>2021-07-04T13:18:32Z</time>
      </trkpt>
      <trkpt lat="44.19359" lon="4.50292">
        <ele>77</ele>
        <time>2021-07-04T13:18:34Z</time>
      </trkpt>
      <trkpt lat="44.19354" lon="4.50287">
        <ele>77</ele>
        <time>2021-07-04T13:18:36Z</time>
      </trkpt>
      <trkpt lat="44.19349" lon="4.50279">
        <ele>77</ele>
        <time>2021-07-04T13:18:38Z</time>
      </trkpt>
      <trkpt lat="44.1934" lon="4.50259">
        <ele>77</ele>
        <time>2021-07-04T13:18:42Z</time>
      </trkpt>
      <trkpt lat="44.19332" lon="4.50244">
        <ele>77</ele>
        <time>2021-07-04T13:18:45Z</time>
      </trkpt>
      <trkpt lat="44.19321" lon="4.50227">
        <ele>77</ele>
        <time>2021-07-04T13:18:49Z</time>
      </trkpt>
      <trkpt lat="44.19298" lon="4.50206">
        <ele>77</ele>
        <time>2021-07-04T13:18:55Z</time>
      </trkpt>
      <trkpt lat="44.19287" lon="4.50199">
        <ele>77</ele>
        <time>2021-07-04T13:18:58Z</time>
      </trkpt>
      <trkpt lat="44.19279" lon="4.50195">
        <ele>77</ele>
        <time>2021-07-04T13:19:00Z</time>
      </trkpt>
      <trkpt lat="44.19258" lon="4.50174">
        <ele>77</ele>
        <time>2021-07-04T13:19:06Z</time>
      </trkpt>
      <trkpt lat="44.19214" lon="4.50135">
        <ele>80</ele>
        <time>2021-07-04T13:19:18Z</time>
      </trkpt>
      <trkpt lat="44.19193" lon="4.50114">
        <ele>81</ele>
        <time>2021-07-04T13:19:24Z</time>
      </trkpt>
      <trkpt lat="44.19177" lon="4.50096">
        <ele>83</ele>
        <time>2021-07-04T13:19:29Z</time>
      </trkpt>
      <trkpt lat="44.19165" lon="4.50089">
        <ele>84</ele>
        <time>2021-07-04T13:19:32Z</time>
      </trkpt>
      <trkpt lat="44.19154" lon="4.50072">
        <ele>84</ele>
        <time>2021-07-04T13:19:36Z</time>
      </trkpt>
      <trkpt lat="44.19142" lon="4.50058">
        <ele>83</ele>
        <time>2021-07-04T13:19:39Z</time>
      </trkpt>
      <trkpt lat="44.19135" lon="4.50045">
        <ele>83</ele>
        <time>2021-07-04T13:19:42Z</time>
      </trkpt>
      <trkpt lat="44.19135" lon="4.50045">
        <ele>83</ele>
        <time>2021-07-04T13:19:42Z</time>
      </trkpt>
      <trkpt lat="44.19135" lon="4.50031">
        <ele>83</ele>
        <time>2021-07-04T13:19:44Z</time>
      </trkpt>
      <trkpt lat="44.19149" lon="4.5001">
        <ele>85</ele>
        <time>2021-07-04T13:19:49Z</time>
      </trkpt>
      <trkpt lat="44.19156" lon="4.49993">
        <ele>86</ele>
        <time>2021-07-04T13:19:53Z</time>
      </trkpt>
      <trkpt lat="44.19161" lon="4.49972">
        <ele>88</ele>
        <time>2021-07-04T13:19:56Z</time>
      </trkpt>
      <trkpt lat="44.19171" lon="4.49958">
        <ele>89</ele>
        <time>2021-07-04T13:20:00Z</time>
      </trkpt>
      <trkpt lat="44.1919" lon="4.49952">
        <ele>90</ele>
        <time>2021-07-04T13:20:04Z</time>
      </trkpt>
      <trkpt lat="44.19216" lon="4.49948">
        <ele>92</ele>
        <time>2021-07-04T13:20:10Z</time>
      </trkpt>
      <trkpt lat="44.19221" lon="4.49938">
        <ele>93</ele>
        <time>2021-07-04T13:20:12Z</time>
      </trkpt>
      <trkpt lat="44.19223" lon="4.49899">
        <ele>97</ele>
        <time>2021-07-04T13:20:19Z</time>
      </trkpt>
      <trkpt lat="44.19222" lon="4.49871">
        <ele>99</ele>
        <time>2021-07-04T13:20:24Z</time>
      </trkpt>
      <trkpt lat="44.1925" lon="4.49823">
        <ele>104</ele>
        <time>2021-07-04T13:20:34Z</time>
      </trkpt>
      <trkpt lat="44.19258" lon="4.49806">
        <ele>103</ele>
        <time>2021-07-04T13:20:37Z</time>
      </trkpt>
      <trkpt lat="44.19277" lon="4.49775">
        <ele>103</ele>
        <time>2021-07-04T13:20:44Z</time>
      </trkpt>
      <trkpt lat="44.19311" lon="4.49772">
        <ele>102</ele>
        <time>2021-07-04T13:20:52Z</time>
      </trkpt>
      <trkpt lat="44.19326" lon="4.49765">
        <ele>102</ele>
        <time>2021-07-04T13:20:56Z</time>
      </trkpt>
      <trkpt lat="44.19335" lon="4.49752">
        <ele>102</ele>
        <time>2021-07-04T13:20:59Z</time>
      </trkpt>
      <trkpt lat="44.19339" lon="4.49739">
        <ele>102</ele>
        <time>2021-07-04T13:21:01Z</time>
      </trkpt>
      <trkpt lat="44.19341" lon="4.49716">
        <ele>102</ele>
        <time>2021-07-04T13:21:05Z</time>
      </trkpt>
      <trkpt lat="44.19348" lon="4.49711">
        <ele>102</ele>
        <time>2021-07-04T13:21:07Z</time>
      </trkpt>
      <trkpt lat="44.19356" lon="4.49712">
        <ele>102</ele>
        <time>2021-07-04T13:21:09Z</time>
      </trkpt>
      <trkpt lat="44.19375" lon="4.49718">
        <ele>102</ele>
        <time>2021-07-04T13:21:13Z</time>
      </trkpt>
      <trkpt lat="44.19393" lon="4.49725">
        <ele>103</ele>
        <time>2021-07-04T13:21:18Z</time>
      </trkpt>
      <trkpt lat="44.19425" lon="4.49718">
        <ele>103</ele>
        <time>2021-07-04T13:21:25Z</time>
      </trkpt>
      <trkpt lat="44.19443" lon="4.49715">
        <ele>104</ele>
        <time>2021-07-04T13:21:29Z</time>
      </trkpt>
      <trkpt lat="44.1948" lon="4.49706">
        <ele>104</ele>
        <time>2021-07-04T13:21:38Z</time>
      </trkpt>
      <trkpt lat="44.19505" lon="4.49685">
        <ele>104</ele>
        <time>2021-07-04T13:21:45Z</time>
      </trkpt>
      <trkpt lat="44.19523" lon="4.49658">
        <ele>106</ele>
        <time>2021-07-04T13:21:51Z</time>
      </trkpt>
      <trkpt lat="44.1954" lon="4.4962">
        <ele>107</ele>
        <time>2021-07-04T13:21:59Z</time>
      </trkpt>
      <trkpt lat="44.19552" lon="4.49592">
        <ele>108</ele>
        <time>2021-07-04T13:22:04Z</time>
      </trkpt>
      <trkpt lat="44.19559" lon="4.49581">
        <ele>109</ele>
        <time>2021-07-04T13:22:07Z</time>
      </trkpt>
      <trkpt lat="44.19566" lon="4.49574">
        <ele>111</ele>
        <time>2021-07-04T13:22:09Z</time>
      </trkpt>
      <trkpt lat="44.19582" lon="4.49569">
        <ele>114</ele>
        <time>2021-07-04T13:22:12Z</time>
      </trkpt>
      <trkpt lat="44.19601" lon="4.49557">
        <ele>119</ele>
        <time>2021-07-04T13:22:17Z</time>
      </trkpt>
      <trkpt lat="44.19625" lon="4.49541">
        <ele>124</ele>
        <time>2021-07-04T13:22:24Z</time>
      </trkpt>
      <trkpt lat="44.19639" lon="4.4954">
        <ele>127</ele>
        <time>2021-07-04T13:22:27Z</time>
      </trkpt>
      <trkpt lat="44.19654" lon="4.49544">
        <ele>131</ele>
        <time>2021-07-04T13:22:30Z</time>
      </trkpt>
      <trkpt lat="44.19662" lon="4.49542">
        <ele>132</ele>
        <time>2021-07-04T13:22:32Z</time>
      </trkpt>
      <trkpt lat="44.19667" lon="4.49537">
        <ele>133</ele>
        <time>2021-07-04T13:22:34Z</time>
      </trkpt>
      <trkpt lat="44.19669" lon="4.49528">
        <ele>133</ele>
        <time>2021-07-04T13:22:35Z</time>
      </trkpt>
      <trkpt lat="44.1967" lon="4.49501">
        <ele>131</ele>
        <time>2021-07-04T13:22:40Z</time>
      </trkpt>
      <trkpt lat="44.19673" lon="4.49472">
        <ele>127</ele>
        <time>2021-07-04T13:22:45Z</time>
      </trkpt>
      <trkpt lat="44.19672" lon="4.4946">
        <ele>125</ele>
        <time>2021-07-04T13:22:47Z</time>
      </trkpt>
      <trkpt lat="44.19673" lon="4.4945">
        <ele>123</ele>
        <time>2021-07-04T13:22:48Z</time>
      </trkpt>
      <trkpt lat="44.19674" lon="4.49438">
        <ele>121</ele>
        <time>2021-07-04T13:22:50Z</time>
      </trkpt>
      <trkpt lat="44.19675" lon="4.49436">
        <ele>121</ele>
        <time>2021-07-04T13:22:51Z</time>
      </trkpt>
      <trkpt lat="44.1968" lon="4.49428">
        <ele>119</ele>
        <time>2021-07-04T13:22:53Z</time>
      </trkpt>
      <trkpt lat="44.19686" lon="4.49427">
        <ele>119</ele>
        <time>2021-07-04T13:22:54Z</time>
      </trkpt>
      <trkpt lat="44.197" lon="4.49429">
        <ele>119</ele>
        <time>2021-07-04T13:22:57Z</time>
      </trkpt>
      <trkpt lat="44.19726" lon="4.49441">
        <ele>121</ele>
        <time>2021-07-04T13:23:04Z</time>
      </trkpt>
      <trkpt lat="44.19752" lon="4.49452">
        <ele>124</ele>
        <time>2021-07-04T13:23:10Z</time>
      </trkpt>
      <trkpt lat="44.1978" lon="4.49455">
        <ele>128</ele>
        <time>2021-07-04T13:23:17Z</time>
      </trkpt>
      <trkpt lat="44.19809" lon="4.49448">
        <ele>129</ele>
        <time>2021-07-04T13:23:24Z</time>
      </trkpt>
      <trkpt lat="44.19832" lon="4.49436">
        <ele>128</ele>
        <time>2021-07-04T13:23:29Z</time>
      </trkpt>
      <trkpt lat="44.19857" lon="4.49408">
        <ele>128</ele>
        <time>2021-07-04T13:23:37Z</time>
      </trkpt>
      <trkpt lat="44.19889" lon="4.49384">
        <ele>130</ele>
        <time>2021-07-04T13:23:45Z</time>
      </trkpt>
      <trkpt lat="44.19902" lon="4.49361">
        <ele>127</ele>
        <time>2021-07-04T13:23:50Z</time>
      </trkpt>
      <trkpt lat="44.19923" lon="4.49342">
        <ele>128</ele>
        <time>2021-07-04T13:23:56Z</time>
      </trkpt>
      <trkpt lat="44.19935" lon="4.49336">
        <ele>129</ele>
        <time>2021-07-04T13:23:59Z</time>
      </trkpt>
      <trkpt lat="44.19942" lon="4.49334">
        <ele>130</ele>
        <time>2021-07-04T13:24:01Z</time>
      </trkpt>
      <trkpt lat="44.19964" lon="4.4933">
        <ele>135</ele>
        <time>2021-07-04T13:24:06Z</time>
      </trkpt>
      <trkpt lat="44.19993" lon="4.49295">
        <ele>132</ele>
        <time>2021-07-04T13:24:15Z</time>
      </trkpt>
      <trkpt lat="44.20021" lon="4.49261">
        <ele>127</ele>
        <time>2021-07-04T13:24:23Z</time>
      </trkpt>
      <trkpt lat="44.20034" lon="4.49253">
        <ele>127</ele>
        <time>2021-07-04T13:24:27Z</time>
      </trkpt>
      <trkpt lat="44.20055" lon="4.49242">
        <ele>127</ele>
        <time>2021-07-04T13:24:32Z</time>
      </trkpt>
      <trkpt lat="44.20078" lon="4.49215">
        <ele>125</ele>
        <time>2021-07-04T13:24:39Z</time>
      </trkpt>
      <trkpt lat="44.20087" lon="4.49208">
        <ele>124</ele>
        <time>2021-07-04T13:24:41Z</time>
      </trkpt>
      <trkpt lat="44.201" lon="4.49204">
        <ele>124</ele>
        <time>2021-07-04T13:24:45Z</time>
      </trkpt>
      <trkpt lat="44.20122" lon="4.49206">
        <ele>124</ele>
        <time>2021-07-04T13:24:50Z</time>
      </trkpt>
      <trkpt lat="44.20159" lon="4.49212">
        <ele>126</ele>
        <time>2021-07-04T13:24:58Z</time>
      </trkpt>
      <trkpt lat="44.20194" lon="4.49222">
        <ele>128</ele>
        <time>2021-07-04T13:25:07Z</time>
      </trkpt>
      <trkpt lat="44.2021" lon="4.49225">
        <ele>128</ele>
        <time>2021-07-04T13:25:11Z</time>
      </trkpt>
      <trkpt lat="44.20228" lon="4.49218">
        <ele>127</ele>
        <time>2021-07-04T13:25:15Z</time>
      </trkpt>
      <trkpt lat="44.20248" lon="4.49203">
        <ele>125</ele>
        <time>2021-07-04T13:25:20Z</time>
      </trkpt>
      <trkpt lat="44.20271" lon="4.49196">
        <ele>123</ele>
        <time>2021-07-04T13:25:26Z</time>
      </trkpt>
      <trkpt lat="44.20301" lon="4.49202">
        <ele>123</ele>
        <time>2021-07-04T13:25:33Z</time>
      </trkpt>
      <trkpt lat="44.20322" lon="4.49204">
        <ele>123</ele>
        <time>2021-07-04T13:25:38Z</time>
      </trkpt>
      <trkpt lat="44.20332" lon="4.49205">
        <ele>122</ele>
        <time>2021-07-04T13:25:40Z</time>
      </trkpt>
      <trkpt lat="44.2035" lon="4.49213">
        <ele>121</ele>
        <time>2021-07-04T13:25:44Z</time>
      </trkpt>
      <trkpt lat="44.20364" lon="4.49221">
        <ele>121</ele>
        <time>2021-07-04T13:25:48Z</time>
      </trkpt>
      <trkpt lat="44.20378" lon="4.49212">
        <ele>119</ele>
        <time>2021-07-04T13:25:52Z</time>
      </trkpt>
      <trkpt lat="44.20386" lon="4.49208">
        <ele>118</ele>
        <time>2021-07-04T13:25:54Z</time>
      </trkpt>
      <trkpt lat="44.20398" lon="4.49207">
        <ele>117</ele>
        <time>2021-07-04T13:25:56Z</time>
      </trkpt>
      <trkpt lat="44.20411" lon="4.49206">
        <ele>116</ele>
        <time>2021-07-04T13:25:59Z</time>
      </trkpt>
      <trkpt lat="44.20424" lon="4.49209">
        <ele>115</ele>
        <time>2021-07-04T13:26:02Z</time>
      </trkpt>
      <trkpt lat="44.20434" lon="4.49211">
        <ele>114</ele>
        <time>2021-07-04T13:26:05Z</time>
      </trkpt>
      <trkpt lat="44.20432" lon="4.49203">
        <ele>114</ele>
        <time>2021-07-04T13:26:06Z</time>
      </trkpt>
      <trkpt lat="44.20431" lon="4.49188">
        <ele>114</ele>
        <time>2021-07-04T13:26:09Z</time>
      </trkpt>
      <trkpt lat="44.2043" lon="4.49142">
        <ele>111</ele>
        <time>2021-07-04T13:26:16Z</time>
      </trkpt>
      <trkpt lat="44.20428" lon="4.4913">
        <ele>111</ele>
        <time>2021-07-04T13:26:19Z</time>
      </trkpt>
      <trkpt lat="44.20421" lon="4.49108">
        <ele>109</ele>
        <time>2021-07-04T13:26:23Z</time>
      </trkpt>
      <trkpt lat="44.20416" lon="4.49095">
        <ele>109</ele>
        <time>2021-07-04T13:26:25Z</time>
      </trkpt>
      <trkpt lat="44.20408" lon="4.49081">
        <ele>108</ele>
        <time>2021-07-04T13:26:28Z</time>
      </trkpt>
      <trkpt lat="44.20404" lon="4.49073">
        <ele>108</ele>
        <time>2021-07-04T13:26:30Z</time>
      </trkpt>
      <trkpt lat="44.20398" lon="4.49054">
        <ele>107</ele>
        <time>2021-07-04T13:26:33Z</time>
      </trkpt>
      <trkpt lat="44.20399" lon="4.49048">
        <ele>107</ele>
        <time>2021-07-04T13:26:34Z</time>
      </trkpt>
      <trkpt lat="44.20391" lon="4.49038">
        <ele>107</ele>
        <time>2021-07-04T13:26:37Z</time>
      </trkpt>
      <trkpt lat="44.2035" lon="4.48999">
        <ele>105</ele>
        <time>2021-07-04T13:26:48Z</time>
      </trkpt>
      <trkpt lat="44.20339" lon="4.4899">
        <ele>105</ele>
        <time>2021-07-04T13:26:51Z</time>
      </trkpt>
      <trkpt lat="44.20283" lon="4.48975">
        <ele>104</ele>
        <time>2021-07-04T13:27:05Z</time>
      </trkpt>
      <trkpt lat="44.20281" lon="4.48975">
        <ele>104</ele>
        <time>2021-07-04T13:27:05Z</time>
      </trkpt>
      <trkpt lat="44.20273" lon="4.48971">
        <ele>103</ele>
        <time>2021-07-04T13:27:07Z</time>
      </trkpt>
      <trkpt lat="44.20265" lon="4.48966">
        <ele>103</ele>
        <time>2021-07-04T13:27:09Z</time>
      </trkpt>
      <trkpt lat="44.20257" lon="4.48958">
        <ele>103</ele>
        <time>2021-07-04T13:27:11Z</time>
      </trkpt>
      <trkpt lat="44.20249" lon="4.48949">
        <ele>102</ele>
        <time>2021-07-04T13:27:14Z</time>
      </trkpt>
      <trkpt lat="44.20242" lon="4.48939">
        <ele>101</ele>
        <time>2021-07-04T13:27:16Z</time>
      </trkpt>
      <trkpt lat="44.20237" lon="4.48928">
        <ele>100</ele>
        <time>2021-07-04T13:27:18Z</time>
      </trkpt>
      <trkpt lat="44.2023" lon="4.48906">
        <ele>98</ele>
        <time>2021-07-04T13:27:22Z</time>
      </trkpt>
      <trkpt lat="44.20221" lon="4.48863">
        <ele>96</ele>
        <time>2021-07-04T13:27:30Z</time>
      </trkpt>
      <trkpt lat="44.20214" lon="4.48846">
        <ele>95</ele>
        <time>2021-07-04T13:27:33Z</time>
      </trkpt>
      <trkpt lat="44.20194" lon="4.48834">
        <ele>94</ele>
        <time>2021-07-04T13:27:38Z</time>
      </trkpt>
      <trkpt lat="44.20188" lon="4.48829">
        <ele>94</ele>
        <time>2021-07-04T13:27:40Z</time>
      </trkpt>
      <trkpt lat="44.20164" lon="4.48813">
        <ele>93</ele>
        <time>2021-07-04T13:27:46Z</time>
      </trkpt>
      <trkpt lat="44.20157" lon="4.4881">
        <ele>93</ele>
        <time>2021-07-04T13:27:48Z</time>
      </trkpt>
      <trkpt lat="44.20145" lon="4.488">
        <ele>92</ele>
        <time>2021-07-04T13:27:51Z</time>
      </trkpt>
      <trkpt lat="44.20137" lon="4.48789">
        <ele>92</ele>
        <time>2021-07-04T13:27:54Z</time>
      </trkpt>
      <trkpt lat="44.20134" lon="4.48777">
        <ele>92</ele>
        <time>2021-07-04T13:27:56Z</time>
      </trkpt>
      <trkpt lat="44.2013" lon="4.48765">
        <ele>92</ele>
        <time>2021-07-04T13:27:58Z</time>
      </trkpt>
      <trkpt lat="44.20138" lon="4.48702">
        <ele>95</ele>
        <time>2021-07-04T13:28:09Z</time>
      </trkpt>
      <trkpt lat="44.20139" lon="4.48684">
        <ele>96</ele>
        <time>2021-07-04T13:28:12Z</time>
      </trkpt>
      <trkpt lat="44.20137" lon="4.48663">
        <ele>96</ele>
        <time>2021-07-04T13:28:15Z</time>
      </trkpt>
      <trkpt lat="44.20132" lon="4.48641">
        <ele>97</ele>
        <time>2021-07-04T13:28:19Z</time>
      </trkpt>
      <trkpt lat="44.20122" lon="4.48613">
        <ele>98</ele>
        <time>2021-07-04T13:28:24Z</time>
      </trkpt>
      <trkpt lat="44.20121" lon="4.48603">
        <ele>99</ele>
        <time>2021-07-04T13:28:26Z</time>
      </trkpt>
      <trkpt lat="44.20119" lon="4.4859">
        <ele>99</ele>
        <time>2021-07-04T13:28:28Z</time>
      </trkpt>
      <trkpt lat="44.2012" lon="4.48579">
        <ele>100</ele>
        <time>2021-07-04T13:28:30Z</time>
      </trkpt>
      <trkpt lat="44.20122" lon="4.48572">
        <ele>100</ele>
        <time>2021-07-04T13:28:31Z</time>
      </trkpt>
      <trkpt lat="44.20122" lon="4.48564">
        <ele>101</ele>
        <time>2021-07-04T13:28:33Z</time>
      </trkpt>
      <trkpt lat="44.2011" lon="4.48539">
        <ele>101</ele>
        <time>2021-07-04T13:28:38Z</time>
      </trkpt>
      <trkpt lat="44.20105" lon="4.48509">
        <ele>102</ele>
        <time>2021-07-04T13:28:43Z</time>
      </trkpt>
      <trkpt lat="44.20085" lon="4.48476">
        <ele>103</ele>
        <time>2021-07-04T13:28:50Z</time>
      </trkpt>
      <trkpt lat="44.20044" lon="4.48413">
        <ele>105</ele>
        <time>2021-07-04T13:29:04Z</time>
      </trkpt>
      <trkpt lat="44.2003" lon="4.48387">
        <ele>106</ele>
        <time>2021-07-04T13:29:10Z</time>
      </trkpt>
      <trkpt lat="44.2002" lon="4.48375">
        <ele>107</ele>
        <time>2021-07-04T13:29:13Z</time>
      </trkpt>
      <trkpt lat="44.2001" lon="4.48364">
        <ele>107</ele>
        <time>2021-07-04T13:29:16Z</time>
      </trkpt>
      <trkpt lat="44.19995" lon="4.48322">
        <ele>110</ele>
        <time>2021-07-04T13:29:24Z</time>
      </trkpt>
      <trkpt lat="44.19979" lon="4.48281">
        <ele>109</ele>
        <time>2021-07-04T13:29:32Z</time>
      </trkpt>
      <trkpt lat="44.19973" lon="4.48227">
        <ele>108</ele>
        <time>2021-07-04T13:29:41Z</time>
      </trkpt>
      <trkpt lat="44.19973" lon="4.48212">
        <ele>107</ele>
        <time>2021-07-04T13:29:43Z</time>
      </trkpt>
      <trkpt lat="44.19961" lon="4.48202">
        <ele>105</ele>
        <time>2021-07-04T13:29:46Z</time>
      </trkpt>
      <trkpt lat="44.19965" lon="4.48183">
        <ele>105</ele>
        <time>2021-07-04T13:29:50Z</time>
      </trkpt>
      <trkpt lat="44.19977" lon="4.48167">
        <ele>106</ele>
        <time>2021-07-04T13:29:54Z</time>
      </trkpt>
      <trkpt lat="44.1999" lon="4.48142">
        <ele>106</ele>
        <time>2021-07-04T13:29:59Z</time>
      </trkpt>
      <trkpt lat="44.19992" lon="4.48101">
        <ele>103</ele>
        <time>2021-07-04T13:30:06Z</time>
      </trkpt>
      <trkpt lat="44.20025" lon="4.48036">
        <ele>102</ele>
        <time>2021-07-04T13:30:19Z</time>
      </trkpt>
      <trkpt lat="44.20049" lon="4.48024">
        <ele>102</ele>
        <time>2021-07-04T13:30:25Z</time>
      </trkpt>
      <trkpt lat="44.2007" lon="4.47957">
        <ele>101</ele>
        <time>2021-07-04T13:30:37Z</time>
      </trkpt>
      <trkpt lat="44.20069" lon="4.47906">
        <ele>100</ele>
        <time>2021-07-04T13:30:46Z</time>
      </trkpt>
      <trkpt lat="44.20107" lon="4.47894">
        <ele>100</ele>
        <time>2021-07-04T13:30:55Z</time>
      </trkpt>
      <trkpt lat="44.20143" lon="4.47895">
        <ele>99</ele>
        <time>2021-07-04T13:31:03Z</time>
      </trkpt>
      <trkpt lat="44.2018" lon="4.47895">
        <ele>99</ele>
        <time>2021-07-04T13:31:12Z</time>
      </trkpt>
      <trkpt lat="44.20216" lon="4.47896">
        <ele>99</ele>
        <time>2021-07-04T13:31:20Z</time>
      </trkpt>
      <trkpt lat="44.20232" lon="4.47895">
        <ele>99</ele>
        <time>2021-07-04T13:31:24Z</time>
      </trkpt>
      <trkpt lat="44.20262" lon="4.47912">
        <ele>100</ele>
        <time>2021-07-04T13:31:32Z</time>
      </trkpt>
      <trkpt lat="44.20292" lon="4.47907">
        <ele>99</ele>
        <time>2021-07-04T13:31:39Z</time>
      </trkpt>
      <trkpt lat="44.20316" lon="4.47902">
        <ele>99</ele>
        <time>2021-07-04T13:31:44Z</time>
      </trkpt>
      <trkpt lat="44.20374" lon="4.4788">
        <ele>99</ele>
        <time>2021-07-04T13:31:58Z</time>
      </trkpt>
      <trkpt lat="44.20385" lon="4.47848">
        <ele>99</ele>
        <time>2021-07-04T13:32:04Z</time>
      </trkpt>
      <trkpt lat="44.2042" lon="4.47847">
        <ele>99</ele>
        <time>2021-07-04T13:32:13Z</time>
      </trkpt>
      <trkpt lat="44.20448" lon="4.47851">
        <ele>100</ele>
        <time>2021-07-04T13:32:19Z</time>
      </trkpt>
      <trkpt lat="44.20476" lon="4.47852">
        <ele>100</ele>
        <time>2021-07-04T13:32:26Z</time>
      </trkpt>
      <trkpt lat="44.20477" lon="4.47855">
        <ele>101</ele>
        <time>2021-07-04T13:32:26Z</time>
      </trkpt>
      <trkpt lat="44.20515" lon="4.47856">
        <ele>101</ele>
        <time>2021-07-04T13:32:35Z</time>
      </trkpt>
      <trkpt lat="44.20553" lon="4.47856">
        <ele>100</ele>
        <time>2021-07-04T13:32:44Z</time>
      </trkpt>
      <trkpt lat="44.20579" lon="4.47859">
        <ele>99</ele>
        <time>2021-07-04T13:32:50Z</time>
      </trkpt>
      <trkpt lat="44.20608" lon="4.47866">
        <ele>100</ele>
        <time>2021-07-04T13:32:57Z</time>
      </trkpt>
      <trkpt lat="44.20639" lon="4.47874">
        <ele>100</ele>
        <time>2021-07-04T13:33:04Z</time>
      </trkpt>
      <trkpt lat="44.20664" lon="4.47884">
        <ele>100</ele>
        <time>2021-07-04T13:33:10Z</time>
      </trkpt>
      <trkpt lat="44.20682" lon="4.47895">
        <ele>99</ele>
        <time>2021-07-04T13:33:15Z</time>
      </trkpt>
      <trkpt lat="44.20702" lon="4.47906">
        <ele>99</ele>
        <time>2021-07-04T13:33:20Z</time>
      </trkpt>
      <trkpt lat="44.20731" lon="4.47919">
        <ele>98</ele>
        <time>2021-07-04T13:33:27Z</time>
      </trkpt>
      <trkpt lat="44.20749" lon="4.47925">
        <ele>97</ele>
        <time>2021-07-04T13:33:31Z</time>
      </trkpt>
      <trkpt lat="44.20764" lon="4.47933">
        <ele>96</ele>
        <time>2021-07-04T13:33:35Z</time>
      </trkpt>
      <trkpt lat="44.20767" lon="4.47934">
        <ele>96</ele>
        <time>2021-07-04T13:33:36Z</time>
      </trkpt>
      <trkpt lat="44.20774" lon="4.47942">
        <ele>95</ele>
        <time>2021-07-04T13:33:38Z</time>
      </trkpt>
      <trkpt lat="44.20792" lon="4.47953">
        <ele>94</ele>
        <time>2021-07-04T13:33:43Z</time>
      </trkpt>
      <trkpt lat="44.20807" lon="4.4796">
        <ele>93</ele>
        <time>2021-07-04T13:33:46Z</time>
      </trkpt>
      <trkpt lat="44.20825" lon="4.47967">
        <ele>92</ele>
        <time>2021-07-04T13:33:51Z</time>
      </trkpt>
      <trkpt lat="44.20842" lon="4.47977">
        <ele>91</ele>
        <time>2021-07-04T13:33:55Z</time>
      </trkpt>
      <trkpt lat="44.20859" lon="4.47985">
        <ele>90</ele>
        <time>2021-07-04T13:33:59Z</time>
      </trkpt>
      <trkpt lat="44.20882" lon="4.47992">
        <ele>89</ele>
        <time>2021-07-04T13:34:05Z</time>
      </trkpt>
      <trkpt lat="44.20905" lon="4.48001">
        <ele>88</ele>
        <time>2021-07-04T13:34:10Z</time>
      </trkpt>
      <trkpt lat="44.20907" lon="4.48001">
        <ele>88</ele>
        <time>2021-07-04T13:34:11Z</time>
      </trkpt>
      <trkpt lat="44.20933" lon="4.48017">
        <ele>88</ele>
        <time>2021-07-04T13:34:17Z</time>
      </trkpt>
      <trkpt lat="44.2101" lon="4.48048">
        <ele>86</ele>
        <time>2021-07-04T13:34:36Z</time>
      </trkpt>
      <trkpt lat="44.2105" lon="4.48063">
        <ele>85</ele>
        <time>2021-07-04T13:34:46Z</time>
      </trkpt>
      <trkpt lat="44.21085" lon="4.48081">
        <ele>84</ele>
        <time>2021-07-04T13:34:54Z</time>
      </trkpt>
      <trkpt lat="44.21115" lon="4.48096">
        <ele>85</ele>
        <time>2021-07-04T13:35:02Z</time>
      </trkpt>
      <trkpt lat="44.21128" lon="4.48104">
        <ele>85</ele>
        <time>2021-07-04T13:35:05Z</time>
      </trkpt>
      <trkpt lat="44.21153" lon="4.48122">
        <ele>84</ele>
        <time>2021-07-04T13:35:12Z</time>
      </trkpt>
      <trkpt lat="44.21169" lon="4.48132">
        <ele>84</ele>
        <time>2021-07-04T13:35:16Z</time>
      </trkpt>
      <trkpt lat="44.21187" lon="4.48141">
        <ele>83</ele>
        <time>2021-07-04T13:35:20Z</time>
      </trkpt>
      <trkpt lat="44.21211" lon="4.48149">
        <ele>82</ele>
        <time>2021-07-04T13:35:26Z</time>
      </trkpt>
      <trkpt lat="44.21245" lon="4.48158">
        <ele>80</ele>
        <time>2021-07-04T13:35:34Z</time>
      </trkpt>
      <trkpt lat="44.21254" lon="4.48161">
        <ele>79</ele>
        <time>2021-07-04T13:35:36Z</time>
      </trkpt>
      <trkpt lat="44.21443" lon="4.48231">
        <ele>76</ele>
        <time>2021-07-04T13:36:22Z</time>
      </trkpt>
      <trkpt lat="44.21479" lon="4.4825">
        <ele>77</ele>
        <time>2021-07-04T13:36:31Z</time>
      </trkpt>
      <trkpt lat="44.21549" lon="4.48296">
        <ele>76</ele>
        <time>2021-07-04T13:36:49Z</time>
      </trkpt>
      <trkpt lat="44.21586" lon="4.48329">
        <ele>76</ele>
        <time>2021-07-04T13:36:59Z</time>
      </trkpt>
      <trkpt lat="44.21766" lon="4.48511">
        <ele>87</ele>
        <time>2021-07-04T13:37:51Z</time>
      </trkpt>
      <trkpt lat="44.21801" lon="4.48546">
        <ele>87</ele>
        <time>2021-07-04T13:38:01Z</time>
      </trkpt>
      <trkpt lat="44.21828" lon="4.48524">
        <ele>85</ele>
        <time>2021-07-04T13:38:09Z</time>
      </trkpt>
      <trkpt lat="44.21832" lon="4.4852">
        <ele>84</ele>
        <time>2021-07-04T13:38:10Z</time>
      </trkpt>
      <trkpt lat="44.21843" lon="4.48539">
        <ele>86</ele>
        <time>2021-07-04T13:38:14Z</time>
      </trkpt>
      <trkpt lat="44.21836" lon="4.48546">
        <ele>86</ele>
        <time>2021-07-04T13:38:16Z</time>
      </trkpt>
      <trkpt lat="44.21843" lon="4.48539">
        <ele>86</ele>
        <time>2021-07-04T13:38:18Z</time>
      </trkpt>
      <trkpt lat="44.21846" lon="4.48547">
        <ele>86</ele>
        <time>2021-07-04T13:38:19Z</time>
      </trkpt>
      <trkpt lat="44.21853" lon="4.48557">
        <ele>86</ele>
        <time>2021-07-04T13:38:22Z</time>
      </trkpt>
      <trkpt lat="44.21823" lon="4.48587">
        <ele>89</ele>
        <time>2021-07-04T13:38:30Z</time>
      </trkpt>
      <trkpt lat="44.21812" lon="4.48597">
        <ele>90</ele>
        <time>2021-07-04T13:38:33Z</time>
      </trkpt>
      <trkpt lat="44.21807" lon="4.48593">
        <ele>90</ele>
        <time>2021-07-04T13:38:35Z</time>
      </trkpt>
      <trkpt lat="44.21805" lon="4.48588">
        <ele>89</ele>
        <time>2021-07-04T13:38:36Z</time>
      </trkpt>
      <trkpt lat="44.21812" lon="4.48582">
        <ele>89</ele>
        <time>2021-07-04T13:38:38Z</time>
      </trkpt>
    </trkseg>
  </trk>
</gpx>